Theta_e
312 312 312 313 313 313 313 313 314 314 314 315 316 316 317 320 325 325 324 321 320 320 320 325 327 325 326 331 339 336 343 346 344 343 342 343 346 348 349 348 351 351 351 350 348
312 312 312 312 313 313 313 314 314 314 315 315 316 317 317 324 327 321 320 319 319 319 324 326 328 328 329 333 339 337 340 339 338 339 341 344 346 348 350 349 352 352 348 349 347
311 312 312 312 313 313 313 314 314 315 315 315 316 317 318 323 330 330 320 318 319 323 327 327 329 330 331 332 336 338 339 337 338 338 339 344 347 349 350 351 351 352 348 350 347
311 312 312 312 313 313 314 314 314 315 315 315 316 316 318 322 333 331 321 319 325 326 326 327 328 329 330 331 331 335 336 337 336 337 342 346 348 349 350 347 348 348 342 349 348
311 311 312 312 313 313 313 314 314 315 315 315 316 316 318 318 328 327 322 324 325 325 326 327 328 328 330 329 332 336 335 334 334 335 339 345 346 349 349 347 347 345 346 346 349
310 311 311 312 312 313 313 314 314 315 315 315 316 316 317 318 325 326 323 323 325 325 325 327 327 327 328 328 330 327 327 329 330 332 336 344 345 347 349 346 349 345 349 347 347
310 310 311 312 312 313 313 314 314 315 315 316 316 316 317 318 320 325 322 323 325 325 325 324 326 325 326 329 325 325 330 330 331 332 338 340 343 345 348 349 352 352 351 350 346
310 310 310 311 312 313 313 314 315 315 315 316 316 316 317 318 321 322 323 322 324 325 325 323 325 324 326 326 325 327 328 331 328 331 336 339 338 343 349 350 352 353 352 352 346
309 310 310 310 312 313 313 314 315 315 316 316 316 316 317 320 321 323 323 323 325 325 324 324 324 324 326 328 330 327 333 328 328 327 333 340 337 337 349 350 351 352 352 352 352
309 310 310 310 311 312 313 315 316 317 319 319 319 317 317 322 324 325 324 324 326 325 323 324 324 327 327 329 337 331 328 327 328 327 332 339 336 342 350 350 351 351 352 352 352
308 309 310 310 311 312 314 319 318 319 320 320 319 317 318 322 324 324 324 324 326 324 324 321 324 324 328 327 326 326 327 327 327 325 330 335 335 335 349 350 350 351 352 352 352
307 307 309 310 311 311 317 317 316 315 317 317 318 319 319 320 321 324 322 326 325 326 322 323 323 323 323 324 326 327 328 327 327 326 330 330 332 332 345 349 349 350 351 352 352
306 307 308 310 311 311 316 316 316 316 316 316 317 318 318 319 322 323 324 325 324 324 323 323 324 322 324 325 327 326 326 326 330 327 327 329 332 333 335 344 341 348 350 351 352
305 306 307 309 309 312 316 315 316 317 317 317 316 317 318 321 322 323 325 326 325 324 323 323 323 324 326 326 326 329 325 325 330 331 330 328 330 334 332 333 341 346 344 350 351
306 306 307 308 309 312 315 315 317 316 317 316 317 318 319 322 322 323 324 325 327 325 324 323 326 326 327 329 326 329 325 328 328 330 330 329 329 333 332 340 336 347 346 347 351
307 307 307 308 309 310 316 316 317 317 317 318 318 318 320 321 321 322 324 325 325 325 324 325 324 325 327 325 325 325 326 326 326 327 328 329 331 333 336 336 337 337 350 349 351
307 308 307 307 308 310 316 316 318 317 316 319 320 319 319 321 322 323 325 325 325 326 326 325 325 326 327 327 324 326 329 329 328 328 327 330 334 337 335 336 338 339 341 351 351
308 307 307 307 308 312 315 318 317 316 316 317 319 319 319 319 321 321 324 325 323 324 325 325 325 327 328 330 330 327 330 330 328 326 330 330 335 334 334 338 344 341 338 352 353
307 307 307 307 307 311 315 319 318 315 318 317 319 321 321 319 319 322 323 323 324 325 326 328 327 327 327 326 328 327 330 326 329 326 330 330 333 335 336 343 345 349 353 354 354
308 310 312 309 307 310 316 315 315 313 316 315 319 319 322 322 320 321 322 322 322 323 325 327 328 325 326 325 324 328 325 329 330 334 331 332 334 334 339 343 344 351 351 354 354
314 313 311 308 308 313 316 314 313 313 313 315 316 317 320 321 320 320 321 320 321 322 323 325 327 327 326 328 329 326 328 326 329 329 331 330 330 336 339 342 342 345 347 349 352
317 316 311 312 312 307 313 311 310 312 312 313 314 316 318 319 321 321 321 320 320 322 323 325 328 328 327 325 324 326 329 331 331 333 328 331 330 329 333 336 338 339 343 343 344
317 314 310 313 313 312 312 313 312 313 313 313 314 316 317 318 320 325 323 322 324 323 325 325 328 328 328 328 326 329 325 325 328 331 334 332 331 334 337 338 337 338 340 340 341
317 318 315 314 310 313 315 315 314 313 312 313 314 315 317 319 320 324 328 327 326 324 323 325 328 331 327 330 330 331 327 326 332 333 334 332 333 334 334 340 338 336 336 334 335
313 313 312 317 316 314 315 316 317 317 314 314 318 317 318 321 322 327 328 329 327 325 323 328 331 328 327 325 327 330 329 327 331 333 332 334 333 335 335 338 337 335 336 336 336
311 312 310 312 312 314 313 315 315 316 317 319 318 321 317 321 324 325 328 328 329 329 327 325 331 329 329 327 327 329 330 329 329 328 331 331 334 333 334 335 335 335 336 337 333
308 310 310 311 314 315 314 314 315 314 318 317 318 323 324 323 324 324 324 324 323 329 336 331 329 331 331 330 330 331 332 331 332 330 334 334 336 334 337 336 336 336 336 336 334
Wind_Speed
9 9 9 10 10 11 11 11 12 13 13 13 13 12 11 9 5 3 3 4 4 4 3 4 4 11 15 8 7 4 1 3 4 6 4 10 9 7 4 10 3 2 4 10 18
9 10 10 10 10 11 11 12 12 13 13 13 13 12 11 8 4 7 5 4 3 2 2 4 5 9 5 5 3 1 2 1 1 4 5 15 12 12 5 10 2 4 5 18 18
9 10 10 11 11 11 12 12 12 13 13 13 13 12 10 5 2 6 9 2 3 5 1 3 6 6 4 3 2 1 3 3 0 4 6 13 10 9 6 8 8 13 18 22 20
10 10 11 11 12 12 12 13 12 12 13 13 12 12 9 2 1 5 8 4 5 3 1 4 4 3 3 3 2 2 2 3 1 3 8 11 12 7 12 1 3 13 19 24 21
11 12 12 12 13 12 12 13 13 12 13 13 12 11 7 2 1 3 4 3 3 4 4 6 7 3 4 2 3 1 2 3 2 3 8 11 10 4 11 4 6 18 22 21 21
12 12 13 13 13 13 13 13 13 12 12 12 12 11 8 2 3 1 2 4 1 5 8 9 6 3 4 2 2 2 4 4 2 4 9 13 7 5 6 6 15 20 22 21 20
13 13 13 14 14 13 13 13 13 12 11 11 11 10 9 7 4 4 1 5 2 2 5 6 4 3 1 2 5 3 4 2 1 4 4 11 4 13 10 15 19 19 20 20 20
14 14 14 14 14 14 13 14 13 12 11 10 10 9 6 4 5 7 3 5 3 2 2 3 4 0 1 2 3 2 2 3 2 2 4 13 8 12 15 21 20 19 19 19 21
13 14 15 14 13 13 12 13 11 10 9 8 9 5 6 2 4 5 6 4 3 2 2 3 3 1 2 2 2 5 2 4 5 4 2 11 4 2 16 18 19 21 21 20 19
13 14 14 15 14 12 11 10 7 7 6 7 9 4 5 2 1 4 7 7 3 2 2 1 3 0 2 3 7 2 1 3 5 1 4 8 6 2 14 17 22 22 21 20 20
13 13 13 13 12 11 6 4 4 3 4 6 3 4 4 2 3 2 6 9 4 3 2 3 3 5 6 3 7 5 1 4 4 1 3 7 6 7 13 16 18 20 21 21 21
13 13 11 10 9 5 4 3 6 3 7 10 15 20 17 12 4 2 8 7 4 4 3 2 4 3 2 4 5 2 2 3 3 5 2 2 3 3 8 11 14 15 18 20 15
13 12 10 7 5 1 4 6 4 4 3 7 10 11 10 12 7 8 12 6 3 5 4 3 3 4 4 4 5 3 3 2 2 3 3 2 1 2 1 9 5 13 20 21 22
13 12 9 4 2 2 5 3 3 2 2 3 2 3 8 8 5 15 14 6 2 5 5 3 1 3 2 4 7 4 6 3 1 1 2 5 2 4 3 7 6 8 18 23 23
13 11 8 4 3 4 4 1 1 2 2 2 1 1 6 9 2 11 17 10 5 5 4 3 5 4 2 3 9 3 3 4 3 3 2 3 3 1 1 4 7 6 8 17 15
13 12 8 5 4 6 5 2 3 1 5 2 0 2 4 7 1 4 7 6 4 4 1 2 2 4 2 3 3 11 5 5 3 1 3 1 2 2 3 4 8 8 6 9 12
12 11 8 4 3 8 7 6 2 3 2 1 2 2 3 7 4 4 11 10 6 5 6 2 4 3 4 3 5 3 4 1 2 4 2 2 3 4 3 6 8 12 10 7 9
12 10 7 5 7 10 9 2 3 2 3 2 2 3 5 8 8 5 9 10 4 3 3 7 6 6 5 6 4 4 4 3 3 3 3 2 3 1 2 6 7 8 10 5 7
12 5 1 5 10 11 8 3 5 4 3 6 5 3 2 2 4 11 11 8 11 10 4 5 5 2 3 2 2 5 4 4 6 1 3 1 3 8 3 2 3 4 2 4 7
6 4 4 3 9 10 2 3 2 3 4 2 2 2 1 1 6 9 9 6 7 14 9 4 2 1 2 4 9 2 9 4 1 5 4 2 3 3 3 5 1 2 0 1 3
2 4 5 8 10 4 3 3 3 5 3 1 1 3 2 2 1 3 4 3 9 10 11 7 3 3 2 3 7 4 4 5 4 2 4 3 3 5 6 3 1 3 3 4 6
3 2 5 3 2 2 1 1 4 4 2 2 2 3 2 3 3 3 6 4 5 13 10 7 3 6 8 1 2 1 5 6 5 5 0 2 4 1 4 3 2 1 4 7 8
3 3 6 7 2 2 1 2 3 3 3 2 3 4 1 2 3 4 4 2 2 10 11 9 3 4 2 3 3 4 4 3 7 2 6 5 2 3 3 5 5 3 6 5 7
2 2 3 4 5 2 2 1 3 5 7 5 4 2 2 3 3 3 2 1 2 5 5 12 4 5 8 3 3 4 5 7 3 4 7 5 3 4 4 7 7 4 4 5 5
4 2 1 2 3 3 2 2 2 3 3 4 3 9 6 3 2 4 1 2 1 1 2 6 8 6 4 3 3 5 10 9 6 7 6 6 6 3 5 2 5 5 3 4 5
3 2 2 2 1 1 1 1 3 4 3 4 6 6 8 6 4 2 1 0 1 1 2 1 4 6 4 5 8 6 8 7 2 6 3 3 4 5 4 8 9 4 1 3 2
6 4 2 2 1 2 1 2 2 6 6 15 12 9 5 5 5 4 4 1 2 2 3 2 5 4 5 3 8 5 9 9 4 5 4 6 3 4 5 7 6 3 3 4 4
Wind_Direction
356 1 357 349 351 347 347 343 343 344 344 348 347 348 348 355 2 14 337 301 283 263 246 134 118 149 160 169 191 180 151 151 194 174 189 163 186 143 142 146 157 167 141 167 165
348 348 346 342 344 339 339 338 337 339 339 343 344 346 348 3 54 39 1 324 283 219 169 121 141 141 148 148 139 174 83 136 233 233 205 173 187 163 152 169 164 119 149 165 169
340 337 335 337 334 332 333 333 331 333 334 338 341 342 348 9 63 12 8 357 152 146 156 92 131 129 103 97 49 169 116 190 28 224 187 182 165 172 158 213 212 172 158 173 172
327 329 330 329 327 330 329 328 326 328 328 332 337 340 345 17 119 8 16 104 123 114 60 75 142 96 82 87 60 251 102 228 98 168 170 179 158 185 197 75 275 174 165 172 177
322 322 322 323 323 324 324 321 320 320 321 326 332 339 351 350 111 15 56 117 64 55 71 70 73 116 116 114 116 73 10 234 224 218 170 152 179 193 221 305 159 164 166 174 184
317 318 319 318 319 321 320 316 312 313 314 318 325 331 337 291 199 151 123 185 83 52 55 62 42 65 101 89 67 293 289 286 242 147 176 187 175 182 179 174 157 167 173 180 184
315 315 316 314 316 318 317 310 306 306 306 309 314 320 306 263 212 193 217 202 224 17 49 38 26 16 99 110 356 13 329 60 15 137 173 180 199 228 175 175 169 175 183 185 189
316 315 316 316 316 317 316 305 303 302 299 300 300 308 274 265 225 221 227 201 223 314 337 2 356 63 115 87 40 60 58 330 11 217 169 191 257 227 179 175 178 183 190 193 196
316 315 316 317 314 313 315 303 302 296 290 288 290 299 278 264 234 221 219 193 190 8 264 301 338 56 57 116 136 35 333 325 350 296 229 217 254 219 182 185 183 189 195 199 204
316 314 315 316 316 320 319 310 298 286 279 282 264 287 253 184 250 194 200 188 181 67 126 352 43 76 97 202 233 162 15 298 274 21 216 210 268 149 191 196 195 193 196 205 210
318 317 316 316 320 326 324 302 290 284 283 236 214 252 279 257 284 201 196 188 156 103 149 28 225 207 188 138 121 124 136 272 270 274 241 202 222 226 200 212 212 202 201 208 213
322 322 321 319 320 331 348 78 56 315 308 259 253 252 251 266 300 235 175 167 162 168 151 170 223 188 147 173 149 133 163 243 280 344 210 193 178 326 203 232 238 217 214 218 207
325 324 326 323 313 163 95 66 35 351 275 280 243 249 242 232 227 217 178 168 152 160 162 186 125 130 220 175 157 171 207 197 294 344 81 341 122 325 193 248 263 230 222 219 214
328 327 329 321 249 185 158 41 13 357 356 273 252 252 209 185 233 221 199 172 142 204 166 224 210 233 200 199 183 197 209 189 262 308 21 351 293 246 314 315 325 284 216 219 215
331 326 327 301 257 171 179 40 54 8 315 65 176 204 193 189 156 197 194 197 184 163 193 150 169 179 273 216 189 105 111 134 94 91 212 31 272 266 244 241 342 353 212 222 218
331 323 319 293 245 188 176 143 132 195 247 27 30 164 155 217 239 123 168 169 172 144 238 250 270 261 248 61 166 142 109 74 77 120 236 44 288 200 305 337 316 329 268 226 208
328 316 306 275 189 175 182 160 165 204 3 79 50 22 230 193 216 167 178 183 180 166 214 223 225 258 208 129 104 142 156 224 233 208 238 140 243 264 282 327 288 293 289 227 195
328 312 298 238 191 180 170 135 189 227 252 345 325 289 214 168 215 168 155 192 204 138 142 199 204 195 167 221 166 162 216 212 236 215 168 154 228 179 78 304 313 283 255 235 200
333 322 226 197 188 181 165 186 209 207 340 331 303 257 228 212 234 207 215 209 199 191 191 162 226 272 228 132 187 157 179 86 109 100 252 311 258 277 138 238 7 25 103 197 219
356 91 50 174 176 170 130 217 236 232 330 311 310 352 314 342 195 192 182 200 195 200 216 179 197 190 89 122 54 239 136 154 140 178 221 197 274 259 274 234 62 79 11 321 260
78 105 60 112 143 147 203 230 273 270 246 276 314 300 309 326 254 208 198 218 212 184 196 155 242 152 209 197 181 144 172 68 105 324 195 219 233 221 261 265 128 33 357 358 28
76 84 127 81 88 59 121 330 328 296 278 276 247 253 266 339 286 232 224 251 186 153 179 188 181 234 254 85 333 190 190 172 195 187 103 296 225 47 221 222 130 78 31 45 48
70 88 141 39 113 83 16 322 278 287 276 297 279 238 244 303 300 235 212 115 197 172 172 170 196 201 185 156 156 211 161 132 103 114 180 197 227 118 205 229 197 134 92 65 52
72 120 58 66 75 51 33 37 297 299 261 267 269 271 278 271 216 295 264 162 347 223 224 166 146 188 211 165 150 167 175 174 135 178 159 227 271 281 224 223 190 135 100 80 62
42 69 83 111 92 75 234 325 300 306 261 260 241 233 234 255 253 231 251 283 77 316 103 190 193 186 193 199 215 193 175 178 193 164 196 164 208 288 24 26 132 164 132 91 70
67 29 50 73 354 175 53 53 302 316 262 264 241 344 219 231 243 277 217 339 3 342 113 60 163 165 163 179 201 206 194 190 206 167 135 158 240 41 78 110 121 141 42 37 60
44 44 54 350 114 197 91 342 273 327 268 250 290 291 264 241 305 298 267 285 2 260 132 135 142 160 183 167 158 202 196 184 170 198 170 199 82 51 113 115 117 115 86 43 17